Regional Weather Roundup
Issued by NWS

Home | Current Version | Previous Version | Text Only | Print | Product List | Glossary Off
Versions: 1 2 3 4 5 6 7 8 9 10 11 12 13 14 15 16 17 18 19 20 21 22 23 24 25 26 27 28 29 30 31 32 33 34 35 36 37 38 39 40 41 42 43 44 45 46 47 48 49 50

000
ASUS44 KMEG 300510
RWRTN
TENNESSEE HOURLY STATE WEATHER ROUNDUP
NATIONAL WEATHER SERVICE MEMPHIS TN
1200 AM CDT TUE JUN 30 2015

TNZ002-004-019-021-049-052-054-088>092-300600-
WEST TENNESSEE

CITY           SKY/WX    TMP DP  RH WIND       PRES   REMARKS
MEMPHIS INTL   TSTM      71  66  84 SW18G30   29.95F
NWS MEMPHIS      N/A     72 N/A N/A MISG        N/A
JACKSON        PTCLDY    76  69  79 SW10      29.90S
DYERSBURG        N/A    N/A N/A N/A MISG        N/A
PARIS          MOCLDY    70  66  88 CALM      29.92R
LEXINGTON      CLEAR     73  70  88 E8        29.93R
$$

TNZ008-025-027-028-033-062-065-066-300600-
NORTH MIDDLE TENNESSEE

CITY           SKY/WX    TMP DP  RH WIND       PRES   REMARKS
NASHVILLE      CLOUDY    73  72  96 SW6       29.92R
CLARKSVILLE    PTCLDY    72  68  87 W5        29.91R
SMYRNA         MOCLDY    75  69  81 CALM      29.92S
COOKEVILLE     CLOUDY    73  72  94 S5        29.94S
CROSSVILLE     TSTM      68  64  87 NE14      30.00R
$$

TNZ061-075-076-078-094-096-097-300600-
SOUTH MIDDLE TENNESSEE

CITY           SKY/WX    TMP DP  RH WIND       PRES   REMARKS
FAYETTEVILLE   CLEAR     72  64  78 S6        29.96F
TULLAHOMA      CLEAR     72  64  78 S5        29.97S
WINCHESTER     PTCLDY    70  64  83 CALM      29.96F
MCMINNVILLE    PTCLDY    73  70  88 SW5       29.94F
COLUMBIA       CLEAR     72  72 100 CALM      29.93S
SHELBYVILLE    CLEAR     72  70  94 S6        29.94S
$$

TNZ017-018-042-046-047-300600-
NORTHEAST TENNESSEE

CITY           SKY/WX    TMP DP  RH WIND       PRES   REMARKS
TRI CITIES     MOCLDY    69  62  78 S3        29.97R
ELIZABETHTON   MOCLDY    64  63  94 E3        29.99R
$$

TNZ012-013-036-069-073-074-300600-
CENTRAL EAST TENNESSEE

CITY           SKY/WX    TMP DP  RH WIND       PRES   REMARKS
KNOXVILLE      LGT RAIN  68  66  93 NE8       29.97R
OAK RIDGE      LGT RAIN  67  64  90 CALM      29.98S
GATLINBURG     CLOUDY    66  63  88 VRB6      30.01R
MORRISTOWN     PTCLDY    70  66  88 W9        29.98S
$$

TNZ083-085-099-300600-
SOUTHEAST TENNESSEE

CITY           SKY/WX    TMP DP  RH WIND       PRES   REMARKS
CHATTANOOGA    CLOUDY    77  63  61 S7        29.96S
$$

SKY/WX REPORTED AS FAIR MEANS FEW OR NO CLOUDS BELOW
12 THOUSAND FEET.



USA.gov is the U.S. government's official web portal to all federal, state and local government web resources and services.